Location: North Mitre
(40.7833°S, 175.4667°E)
Time: 02:25:37
(UTC+00:00)

ATLAS 3B R/B - Pass Details

Date: 04 August 2024
Orbit: 940 x 1254 km, 63.8° (Epoch: 07 September)

Event Time Altitude Azimuth Distance (km) Brightness Sun altitude
Rises 18:04:10 0° 345° (NNW) 3,965 5.6 -14.7°
Reaches altitude 10° 18:07:00 10° 349° (N) 2,966 5.0 -14.2°
Maximum altitude 18:13:44 52° 63° (ENE) 1,289 3.6 -12.9°
Drops below altitude 10° 18:20:03 10° 137° (SE) 2,788 5.3 -11.7°
Sets 18:22:38 0° 141° (SE) 3,709 5.9 -11.3°
